Year,Month,Day,Hour,Minute,Value (Times are PST for temperature in C)
2014,08,25,00,00,23.30
2014,08,25,00,01,23.30
2014,08,25,00,02,23.30
2014,08,25,00,03,23.30
2014,08,25,00,04,23.30
2014,08,25,00,05,23.30
2014,08,25,00,06,23.30
2014,08,25,00,07,23.30
2014,08,25,00,08,23.30
2014,08,25,00,09,23.30
2014,08,25,00,10,23.40
2014,08,25,00,11,23.40
2014,08,25,00,12,23.40
2014,08,25,00,13,23.40
2014,08,25,00,14,23.40
2014,08,25,00,15,23.40
2014,08,25,00,16,23.40
2014,08,25,00,17,23.40
2014,08,25,00,18,23.50
2014,08,25,00,19,23.50
2014,08,25,00,20,23.50
2014,08,25,00,21,23.50
2014,08,25,00,22,23.50
2014,08,25,00,23,23.40
2014,08,25,00,24,23.40
2014,08,25,00,25,23.40
2014,08,25,00,26,23.40
2014,08,25,00,27,23.40
2014,08,25,00,28,23.30
2014,08,25,00,29,23.30
2014,08,25,00,30,23.30
2014,08,25,00,31,23.30
2014,08,25,00,32,23.30
2014,08,25,00,33,23.30
2014,08,25,00,34,23.30
2014,08,25,00,35,23.30
2014,08,25,00,36,23.20
2014,08,25,00,37,23.20
2014,08,25,00,38,23.20
2014,08,25,00,39,23.20
2014,08,25,00,40,23.20
2014,08,25,00,41,23.20
2014,08,25,00,42,23.20
2014,08,25,00,43,23.20
2014,08,25,00,44,23.20
2014,08,25,00,45,23.20
2014,08,25,00,46,23.20
2014,08,25,00,47,23.20
2014,08,25,00,48,23.20
2014,08,25,00,49,23.10
2014,08,25,00,50,23.10
2014,08,25,00,51,23.10
2014,08,25,00,52,23.10
2014,08,25,00,53,23.10
2014,08,25,00,54,23.10
2014,08,25,00,55,23.10
2014,08,25,00,56,23.10
2014,08,25,00,57,23.00
2014,08,25,00,58,23.00
2014,08,25,00,59,23.00
2014,08,25,01,00,22.90
2014,08,25,01,01,22.90
2014,08,25,01,02,22.90
2014,08,25,01,03,22.90
2014,08,25,01,04,22.90
2014,08,25,01,05,22.90
2014,08,25,01,06,22.90
2014,08,25,01,07,22.90
2014,08,25,01,08,23.00
2014,08,25,01,09,23.00
2014,08,25,01,10,23.00
2014,08,25,01,11,23.00
2014,08,25,01,12,23.00
2014,08,25,01,13,23.00
2014,08,25,01,14,23.00
2014,08,25,01,15,23.00
2014,08,25,01,16,23.00
2014,08,25,01,17,23.00
2014,08,25,01,18,23.00
2014,08,25,01,19,23.00
2014,08,25,01,20,23.00
2014,08,25,01,21,23.00
2014,08,25,01,22,22.90
2014,08,25,01,23,22.90
2014,08,25,01,24,22.90
2014,08,25,01,25,22.90
2014,08,25,01,26,22.90
2014,08,25,01,27,22.90
2014,08,25,01,28,22.90
2014,08,25,01,29,22.90
2014,08,25,01,30,22.90
2014,08,25,01,31,22.90
2014,08,25,01,32,22.90
2014,08,25,01,33,22.90
2014,08,25,01,34,22.80
2014,08,25,01,35,22.80
2014,08,25,01,36,22.80
2014,08,25,01,37,22.80
2014,08,25,01,38,22.80
2014,08,25,01,39,22.80
2014,08,25,01,40,22.70
2014,08,25,01,41,22.70
2014,08,25,01,42,22.70
2014,08,25,01,43,22.70
2014,08,25,01,44,22.70
2014,08,25,01,45,22.70
2014,08,25,01,46,22.60
2014,08,25,01,47,22.60
2014,08,25,01,48,22.60
2014,08,25,01,49,22.60
2014,08,25,01,50,22.50
2014,08,25,01,51,22.50
2014,08,25,01,52,22.40
2014,08,25,01,53,22.40
2014,08,25,01,54,22.40
2014,08,25,01,55,22.30
2014,08,25,01,56,22.30
2014,08,25,01,57,22.30
2014,08,25,01,58,22.30
2014,08,25,01,59,22.30
2014,08,25,02,00,22.20
2014,08,25,02,01,22.20
2014,08,25,02,02,22.20
2014,08,25,02,03,22.20
2014,08,25,02,04,22.20
2014,08,25,02,05,22.10
2014,08,25,02,06,22.10
2014,08,25,02,07,22.10
2014,08,25,02,08,22.10
2014,08,25,02,09,22.00
2014,08,25,02,10,22.00
2014,08,25,02,11,22.00
2014,08,25,02,12,21.90
2014,08,25,02,13,21.90
2014,08,25,02,14,21.90
2014,08,25,02,15,21.90
2014,08,25,02,16,21.90
2014,08,25,02,17,21.80
2014,08,25,02,18,21.80
2014,08,25,02,19,21.80
2014,08,25,02,20,21.80
2014,08,25,02,21,21.80
2014,08,25,02,22,21.80
2014,08,25,02,23,21.80
2014,08,25,02,24,21.70
2014,08,25,02,25,21.70
2014,08,25,02,26,21.70
2014,08,25,02,27,21.70
2014,08,25,02,28,21.70
2014,08,25,02,29,21.70
2014,08,25,02,30,21.60
2014,08,25,02,31,21.60
2014,08,25,02,32,21.60
2014,08,25,02,33,21.60
2014,08,25,02,34,21.60
2014,08,25,02,35,21.60
2014,08,25,02,36,21.60
2014,08,25,02,37,21.60
2014,08,25,02,38,21.60
2014,08,25,02,39,21.50
2014,08,25,02,40,21.50
2014,08,25,02,41,21.50
2014,08,25,02,42,21.50
2014,08,25,02,43,21.40
2014,08,25,02,44,21.40
2014,08,25,02,45,21.40
2014,08,25,02,46,21.40
2014,08,25,02,47,21.40
2014,08,25,02,48,21.40
2014,08,25,02,49,21.40
2014,08,25,02,50,21.40
2014,08,25,02,51,21.40
2014,08,25,02,52,21.40
2014,08,25,02,53,21.40
2014,08,25,02,54,21.40
2014,08,25,02,55,21.40
2014,08,25,02,56,21.40
2014,08,25,02,57,21.30
2014,08,25,02,58,21.30
2014,08,25,02,59,21.20
2014,08,25,03,00,21.10
2014,08,25,03,01,21.00
2014,08,25,03,02,20.90
2014,08,25,03,03,20.80
2014,08,25,03,04,20.70
2014,08,25,03,05,20.60
2014,08,25,03,06,20.60
2014,08,25,03,07,20.60
2014,08,25,03,08,20.60
2014,08,25,03,09,20.60
2014,08,25,03,10,20.60
2014,08,25,03,11,20.60
2014,08,25,03,12,20.60
2014,08,25,03,13,20.70
2014,08,25,03,14,20.70
2014,08,25,03,15,20.80
2014,08,25,03,16,20.80
2014,08,25,03,17,20.80
2014,08,25,03,18,20.90
2014,08,25,03,19,20.90
2014,08,25,03,20,20.90
2014,08,25,03,21,20.90
2014,08,25,03,22,20.90
2014,08,25,03,23,20.90
2014,08,25,03,24,20.90
2014,08,25,03,25,20.90
2014,08,25,03,26,20.90
2014,08,25,03,27,20.80
2014,08,25,03,28,20.80
2014,08,25,03,29,20.80
2014,08,25,03,30,20.80
2014,08,25,03,31,20.80
2014,08,25,03,32,20.80
2014,08,25,03,33,20.80
2014,08,25,03,34,20.80
2014,08,25,03,35,20.80
2014,08,25,03,36,20.80
2014,08,25,03,37,20.70
2014,08,25,03,38,20.70
2014,08,25,03,39,20.70
2014,08,25,03,40,20.70
2014,08,25,03,41,20.60
2014,08,25,03,42,20.60
2014,08,25,03,43,20.60
2014,08,25,03,44,20.60
2014,08,25,03,45,20.50
2014,08,25,03,46,20.50
2014,08,25,03,47,20.50
2014,08,25,03,48,20.40
2014,08,25,03,49,20.40
2014,08,25,03,50,20.40
2014,08,25,03,51,20.40
2014,08,25,03,52,20.40
2014,08,25,03,53,20.40
2014,08,25,03,54,20.40
2014,08,25,03,55,20.40
2014,08,25,03,56,20.40
2014,08,25,03,57,20.30
2014,08,25,03,58,20.30
2014,08,25,03,59,20.30
2014,08,25,04,00,20.30
2014,08,25,04,01,20.30
2014,08,25,04,02,20.20
2014,08,25,04,03,20.20
2014,08,25,04,04,20.20
2014,08,25,04,05,20.20
2014,08,25,04,06,20.20
2014,08,25,04,07,20.20
2014,08,25,04,08,20.10
2014,08,25,04,09,20.10
2014,08,25,04,10,20.10
2014,08,25,04,11,20.10
2014,08,25,04,12,20.10
2014,08,25,04,13,20.10
2014,08,25,04,14,20.10
2014,08,25,04,15,20.00
2014,08,25,04,16,20.00
2014,08,25,04,17,20.00
2014,08,25,04,18,20.00
2014,08,25,04,19,20.00
2014,08,25,04,20,19.90
2014,08,25,04,21,19.90
2014,08,25,04,22,19.90
2014,08,25,04,23,19.90
2014,08,25,04,24,19.90
2014,08,25,04,25,19.80
2014,08,25,04,26,19.80
2014,08,25,04,27,19.80
2014,08,25,04,28,19.80
2014,08,25,04,29,19.80
2014,08,25,04,30,19.80
2014,08,25,04,31,19.80
2014,08,25,04,32,19.70
2014,08,25,04,33,19.70
2014,08,25,04,34,19.70
2014,08,25,04,35,19.70
2014,08,25,04,36,19.60
2014,08,25,04,37,19.60
2014,08,25,04,38,19.60
2014,08,25,04,39,19.60
2014,08,25,04,40,19.60
2014,08,25,04,41,19.50
2014,08,25,04,42,19.50
2014,08,25,04,43,19.50
2014,08,25,04,44,19.40
2014,08,25,04,45,19.40
2014,08,25,04,46,19.40
2014,08,25,04,47,19.40
2014,08,25,04,48,19.40
2014,08,25,04,49,19.40
2014,08,25,04,50,19.40
2014,08,25,04,51,19.30
2014,08,25,04,52,19.30
2014,08,25,04,53,19.30
2014,08,25,04,54,19.40
2014,08,25,04,55,19.40
2014,08,25,04,56,19.40
2014,08,25,04,57,19.40
2014,08,25,04,58,19.40
2014,08,25,04,59,19.40
2014,08,25,05,00,19.30
2014,08,25,05,01,19.30
2014,08,25,05,02,19.30
2014,08,25,05,03,19.30
2014,08,25,05,04,19.30
2014,08,25,05,05,19.30
2014,08,25,05,06,19.40
2014,08,25,05,07,19.40
2014,08,25,05,08,19.40
2014,08,25,05,09,19.40
2014,08,25,05,10,19.40
2014,08,25,05,11,19.40
2014,08,25,05,12,19.40
2014,08,25,05,13,19.40
2014,08,25,05,14,19.40
2014,08,25,05,15,19.40
2014,08,25,05,16,19.40
2014,08,25,05,17,19.40
2014,08,25,05,18,19.40
2014,08,25,05,19,19.40
2014,08,25,05,20,19.40
2014,08,25,05,21,19.40
2014,08,25,05,22,19.40
2014,08,25,05,23,19.40
2014,08,25,05,24,19.40
2014,08,25,05,25,19.40
2014,08,25,05,26,19.30
2014,08,25,05,27,19.30
2014,08,25,05,28,19.30
2014,08,25,05,29,19.30
2014,08,25,05,30,19.30
2014,08,25,05,31,19.30
2014,08,25,05,32,19.30
2014,08,25,05,33,19.30
2014,08,25,05,34,19.30
2014,08,25,05,35,19.20
2014,08,25,05,36,19.20
2014,08,25,05,37,19.20
2014,08,25,05,38,19.20
2014,08,25,05,39,19.20
2014,08,25,05,40,19.20
2014,08,25,05,41,19.20
2014,08,25,05,42,19.20
2014,08,25,05,43,19.10
2014,08,25,05,44,19.10
2014,08,25,05,45,19.10
2014,08,25,05,46,19.10
2014,08,25,05,47,19.10
2014,08,25,05,48,19.00
2014,08,25,05,49,19.00
2014,08,25,05,50,19.00
2014,08,25,05,51,19.00
2014,08,25,05,52,19.00
2014,08,25,05,53,18.90
2014,08,25,05,54,18.90
2014,08,25,05,55,18.90
2014,08,25,05,56,18.90
2014,08,25,05,57,18.80
2014,08,25,05,58,18.80
2014,08,25,05,59,18.80
2014,08,25,06,00,18.80
2014,08,25,06,01,18.80
2014,08,25,06,02,18.80
2014,08,25,06,03,18.80
2014,08,25,06,04,18.80
2014,08,25,06,05,18.80
2014,08,25,06,06,18.80
2014,08,25,06,07,18.80
2014,08,25,06,08,18.80
2014,08,25,06,09,18.80
2014,08,25,06,10,18.80
2014,08,25,06,11,18.80
2014,08,25,06,12,18.80
2014,08,25,06,13,18.70
2014,08,25,06,14,18.70
2014,08,25,06,15,18.70
2014,08,25,06,16,18.70
2014,08,25,06,17,18.60
2014,08,25,06,18,18.60
2014,08,25,06,19,18.60
2014,08,25,06,20,18.60
2014,08,25,06,21,18.60
2014,08,25,06,22,18.60
2014,08,25,06,23,18.60
2014,08,25,06,24,18.60
2014,08,25,06,25,18.60
2014,08,25,06,26,18.60
2014,08,25,06,27,18.60
2014,08,25,06,28,18.60
2014,08,25,06,29,18.60
2014,08,25,06,30,18.60
2014,08,25,06,31,18.60
2014,08,25,06,32,18.60
2014,08,25,06,33,18.60
2014,08,25,06,34,18.60
2014,08,25,06,35,18.50
2014,08,25,06,36,18.50
2014,08,25,06,37,18.50
2014,08,25,06,38,18.40
2014,08,25,06,39,18.40
2014,08,25,06,40,18.30
2014,08,25,06,41,18.30
2014,08,25,06,42,18.30
2014,08,25,06,43,18.20
2014,08,25,06,44,18.20
2014,08,25,06,45,18.10
2014,08,25,06,46,18.00
2014,08,25,06,47,18.00
2014,08,25,06,48,17.90
2014,08,25,06,49,17.90
2014,08,25,06,50,17.80
2014,08,25,06,51,17.70
2014,08,25,06,52,17.70
2014,08,25,06,53,17.60
2014,08,25,06,54,17.60
2014,08,25,06,55,17.50
2014,08,25,06,56,17.40
2014,08,25,06,57,17.40
2014,08,25,06,58,17.30
2014,08,25,06,59,17.20
2014,08,25,07,00,17.20
2014,08,25,07,01,17.10
2014,08,25,07,02,17.00
2014,08,25,07,03,17.00
2014,08,25,07,04,16.90
2014,08,25,07,05,16.90
2014,08,25,07,06,16.80
2014,08,25,07,07,16.80
2014,08,25,07,08,16.80
2014,08,25,07,09,16.80
2014,08,25,07,10,16.80
2014,08,25,07,11,16.80
2014,08,25,07,12,16.80
2014,08,25,07,13,16.80
2014,08,25,07,14,16.80
2014,08,25,07,15,16.80
2014,08,25,07,16,16.80
2014,08,25,07,17,16.90
2014,08,25,07,18,16.90
2014,08,25,07,19,16.90
2014,08,25,07,20,16.90
2014,08,25,07,21,16.90
2014,08,25,07,22,16.90
2014,08,25,07,23,16.90
2014,08,25,07,24,16.90
2014,08,25,07,25,16.90
2014,08,25,07,26,16.90
2014,08,25,07,27,17.00
2014,08,25,07,28,17.00
2014,08,25,07,29,17.00
2014,08,25,07,30,17.10
2014,08,25,07,31,17.10
2014,08,25,07,32,17.10
2014,08,25,07,33,17.20
2014,08,25,07,34,17.20
2014,08,25,07,35,17.20
2014,08,25,07,36,17.20
2014,08,25,07,37,17.20
2014,08,25,07,38,17.20
2014,08,25,07,39,17.30
2014,08,25,07,40,17.30
2014,08,25,07,41,17.30
2014,08,25,07,42,17.40
2014,08,25,07,43,17.50
2014,08,25,07,44,17.50
2014,08,25,07,45,17.60
2014,08,25,07,46,17.70
2014,08,25,07,47,17.80
2014,08,25,07,48,17.90
2014,08,25,07,49,17.90
2014,08,25,07,50,18.00
2014,08,25,07,51,18.10
2014,08,25,07,52,18.10
2014,08,25,07,53,18.20
2014,08,25,07,54,18.20
2014,08,25,07,55,18.30
2014,08,25,07,56,18.40
2014,08,25,07,57,18.40
2014,08,25,07,58,18.50
2014,08,25,07,59,18.50
2014,08,25,08,00,18.60
2014,08,25,08,01,18.70
2014,08,25,08,02,18.80
2014,08,25,08,03,18.90
2014,08,25,08,04,19.00
2014,08,25,08,05,19.10
2014,08,25,08,06,19.20
2014,08,25,08,07,19.20
2014,08,25,08,08,19.30
2014,08,25,08,09,19.40
2014,08,25,08,10,19.40
2014,08,25,08,11,19.50
2014,08,25,08,12,19.60
2014,08,25,08,13,19.70
2014,08,25,08,14,19.80
2014,08,25,08,15,19.80
2014,08,25,08,16,20.00
2014,08,25,08,17,20.10
2014,08,25,08,18,20.10
2014,08,25,08,19,20.20
2014,08,25,08,20,20.30
2014,08,25,08,21,20.40
2014,08,25,08,22,20.40
2014,08,25,08,23,20.50
2014,08,25,08,24,20.60
2014,08,25,08,25,20.60
2014,08,25,08,26,20.70
2014,08,25,08,27,20.70
2014,08,25,08,28,20.80
2014,08,25,08,29,20.80
2014,08,25,08,30,20.80
2014,08,25,08,31,20.90
2014,08,25,08,32,20.90
2014,08,25,08,33,21.00
2014,08,25,08,34,21.00
2014,08,25,08,35,21.00
2014,08,25,08,36,21.10
2014,08,25,08,37,21.10
2014,08,25,08,38,21.10
2014,08,25,08,39,21.10
2014,08,25,08,40,21.10
2014,08,25,08,41,21.20
2014,08,25,08,42,21.20
2014,08,25,08,43,21.20
2014,08,25,08,44,21.20
2014,08,25,08,45,21.20
2014,08,25,08,46,21.20
2014,08,25,08,47,21.20
2014,08,25,08,48,21.10
2014,08,25,08,49,21.10
2014,08,25,08,50,21.10
2014,08,25,08,51,21.10
2014,08,25,08,52,21.10
2014,08,25,08,53,21.10
2014,08,25,08,54,21.10
2014,08,25,08,55,21.10
2014,08,25,08,56,21.10
2014,08,25,08,57,21.20
2014,08,25,08,58,21.20
2014,08,25,08,59,21.20
2014,08,25,09,00,21.30
2014,08,25,09,01,21.30
2014,08,25,09,02,21.30
2014,08,25,09,03,21.40
2014,08,25,09,04,21.40
2014,08,25,09,05,21.40
2014,08,25,09,06,21.50
2014,08,25,09,07,21.50
2014,08,25,09,08,21.60
2014,08,25,09,09,21.60
2014,08,25,09,10,21.60
2014,08,25,09,11,21.70
2014,08,25,09,12,21.70
2014,08,25,09,13,21.70
2014,08,25,09,14,21.80
2014,08,25,09,15,21.80
2014,08,25,09,16,21.90
2014,08,25,09,17,22.00
2014,08,25,09,18,22.00
2014,08,25,09,19,22.10
2014,08,25,09,20,22.20
2014,08,25,09,21,22.20
2014,08,25,09,22,22.30
2014,08,25,09,23,22.30
2014,08,25,09,24,22.30
2014,08,25,09,25,22.40
2014,08,25,09,26,22.40
2014,08,25,09,27,22.40
2014,08,25,09,28,22.30
2014,08,25,09,29,22.30
2014,08,25,09,30,22.30
2014,08,25,09,31,22.30
2014,08,25,09,32,22.30
2014,08,25,09,33,22.30
2014,08,25,09,34,22.30
2014,08,25,09,35,22.20
2014,08,25,09,36,22.20
2014,08,25,09,37,22.20
2014,08,25,09,38,22.20
2014,08,25,09,39,22.20
2014,08,25,09,40,22.20
2014,08,25,09,41,22.20
2014,08,25,09,42,22.20
2014,08,25,09,43,22.20
2014,08,25,09,44,22.20
2014,08,25,09,45,22.20
2014,08,25,09,46,22.20
2014,08,25,09,47,22.20
2014,08,25,09,48,22.20
2014,08,25,09,49,22.30
2014,08,25,09,50,22.30
2014,08,25,09,51,22.40
2014,08,25,09,52,22.50
2014,08,25,09,53,22.60
2014,08,25,09,54,22.60
2014,08,25,09,55,22.70
2014,08,25,09,56,22.70
2014,08,25,09,57,22.80
2014,08,25,09,58,22.80
2014,08,25,09,59,22.90
2014,08,25,10,00,22.90
2014,08,25,10,01,22.90
2014,08,25,10,02,23.00
2014,08,25,10,03,23.10
2014,08,25,10,04,23.10
2014,08,25,10,05,23.20
2014,08,25,10,06,23.20
2014,08,25,10,07,23.30
2014,08,25,10,08,23.30
2014,08,25,10,09,23.40
2014,08,25,10,10,23.50
2014,08,25,10,11,23.50
2014,08,25,10,12,23.50
2014,08,25,10,13,23.50
2014,08,25,10,14,23.50
2014,08,25,10,15,23.40
2014,08,25,10,16,23.40
2014,08,25,10,17,23.40
2014,08,25,10,18,23.40
2014,08,25,10,19,23.30
2014,08,25,10,20,23.30
2014,08,25,10,21,23.30
2014,08,25,10,22,23.30
2014,08,25,10,23,23.30
2014,08,25,10,24,23.20
2014,08,25,10,25,23.20
2014,08,25,10,26,23.10
2014,08,25,10,27,23.10
2014,08,25,10,28,23.10
2014,08,25,10,29,23.10
2014,08,25,10,30,23.20
2014,08,25,10,31,23.20
2014,08,25,10,32,23.20
2014,08,25,10,33,23.30
2014,08,25,10,34,23.30
2014,08,25,10,35,23.40
2014,08,25,10,36,23.50
2014,08,25,10,37,23.50
2014,08,25,10,38,23.60
2014,08,25,10,39,23.70
2014,08,25,10,40,23.70
2014,08,25,10,41,23.80
2014,08,25,10,42,23.80
2014,08,25,10,43,23.80
2014,08,25,10,44,23.80
2014,08,25,10,45,23.80
2014,08,25,10,46,23.80
2014,08,25,10,47,23.90
2014,08,25,10,48,23.90
2014,08,25,10,49,24.00
2014,08,25,10,50,24.00
2014,08,25,10,51,24.10
2014,08,25,10,52,24.10
2014,08,25,10,53,24.20
2014,08,25,10,54,24.20
2014,08,25,10,55,24.20
2014,08,25,10,56,24.30
2014,08,25,10,57,24.20
2014,08,25,10,58,24.10
2014,08,25,10,59,24.10
2014,08,25,11,00,24.00
2014,08,25,11,01,24.00
2014,08,25,11,02,23.90
2014,08,25,11,03,23.90
2014,08,25,11,04,23.90
2014,08,25,11,05,23.90
2014,08,25,11,06,23.90
2014,08,25,11,07,23.90
2014,08,25,11,08,23.90
2014,08,25,11,09,23.90
2014,08,25,11,10,23.80
2014,08,25,11,11,23.70
2014,08,25,11,12,23.70
2014,08,25,11,13,23.60
2014,08,25,11,14,23.60
2014,08,25,11,15,23.60
2014,08,25,11,16,23.50
2014,08,25,11,17,23.50
2014,08,25,11,18,23.40
2014,08,25,11,19,23.40
2014,08,25,11,20,23.40
2014,08,25,11,21,23.40
2014,08,25,11,22,23.40
2014,08,25,11,23,23.40
2014,08,25,11,24,23.40
2014,08,25,11,25,23.40
2014,08,25,11,26,23.40
2014,08,25,11,27,23.40
2014,08,25,11,28,23.30
2014,08,25,11,29,23.30
2014,08,25,11,30,23.30
2014,08,25,11,31,23.20
2014,08,25,11,32,23.20
2014,08,25,11,33,23.30
2014,08,25,11,34,23.30
2014,08,25,11,35,23.30
2014,08,25,11,36,23.30
2014,08,25,11,37,23.30
2014,08,25,11,38,23.30
2014,08,25,11,39,23.40
2014,08,25,11,40,23.40
2014,08,25,11,41,23.40
2014,08,25,11,42,23.50
2014,08,25,11,43,23.60
2014,08,25,11,44,23.60
2014,08,25,11,45,23.70
2014,08,25,11,46,23.80
2014,08,25,11,47,23.90
2014,08,25,11,48,23.90
2014,08,25,11,49,24.00
2014,08,25,11,50,24.10
2014,08,25,11,51,24.10
2014,08,25,11,52,24.10
2014,08,25,11,53,24.20
2014,08,25,11,54,24.20
2014,08,25,11,55,24.20
2014,08,25,11,56,24.20
2014,08,25,11,57,24.20
2014,08,25,11,58,24.30
2014,08,25,11,59,24.30
2014,08,25,12,00,24.30
2014,08,25,12,01,24.30
2014,08,25,12,02,24.30
2014,08,25,12,03,24.30
2014,08,25,12,04,24.30
2014,08,25,12,05,24.30
2014,08,25,12,06,24.30
2014,08,25,12,07,24.30
2014,08,25,12,08,24.40
2014,08,25,12,09,24.40
2014,08,25,12,10,24.40
2014,08,25,12,11,24.40
2014,08,25,12,12,24.40
2014,08,25,12,13,24.30
2014,08,25,12,14,24.30
2014,08,25,12,15,24.30
2014,08,25,12,16,24.30
2014,08,25,12,17,24.40
2014,08,25,12,18,24.40
2014,08,25,12,19,24.40
2014,08,25,12,20,24.40
2014,08,25,12,21,24.40
2014,08,25,12,22,24.40
2014,08,25,12,23,24.50
2014,08,25,12,24,24.50
2014,08,25,12,25,24.60
2014,08,25,12,26,24.60
2014,08,25,12,27,24.60
2014,08,25,12,28,24.60
2014,08,25,12,29,24.70
2014,08,25,12,30,24.70
2014,08,25,12,31,24.70
2014,08,25,12,32,24.70
2014,08,25,12,33,24.70
2014,08,25,12,34,24.70
2014,08,25,12,35,24.70
2014,08,25,12,36,24.70
2014,08,25,12,37,24.80
2014,08,25,12,38,24.80
2014,08,25,12,39,24.90
2014,08,25,12,40,25.00
2014,08,25,12,41,25.10
2014,08,25,12,42,25.10
2014,08,25,12,43,25.20
2014,08,25,12,44,25.40
2014,08,25,12,45,25.40
2014,08,25,12,46,25.40
2014,08,25,12,47,25.50
2014,08,25,12,48,25.60
2014,08,25,12,49,25.60
2014,08,25,12,50,25.70
2014,08,25,12,51,25.80
2014,08,25,12,52,25.80
2014,08,25,12,53,25.70
2014,08,25,12,54,25.60
2014,08,25,12,55,25.40
2014,08,25,12,56,25.20
2014,08,25,12,57,25.10
2014,08,25,12,58,25.00
2014,08,25,12,59,24.80
2014,08,25,13,00,24.70
2014,08,25,13,01,24.70
2014,08,25,13,02,24.70
2014,08,25,13,03,24.60
2014,08,25,13,04,24.60
2014,08,25,13,05,24.60
2014,08,25,13,06,24.60
2014,08,25,13,07,24.60
2014,08,25,13,08,24.70
2014,08,25,13,09,24.70
2014,08,25,13,10,24.90
2014,08,25,13,11,25.10
2014,08,25,13,12,25.20
2014,08,25,13,13,25.20
2014,08,25,13,14,25.30
2014,08,25,13,15,25.30
2014,08,25,13,16,25.40
2014,08,25,13,17,25.40
2014,08,25,13,18,25.50
2014,08,25,13,19,25.60
2014,08,25,13,20,25.60
2014,08,25,13,21,25.60
2014,08,25,13,22,25.60
2014,08,25,13,23,25.50
2014,08,25,13,24,25.60
2014,08,25,13,25,25.60
2014,08,25,13,26,25.60
2014,08,25,13,27,25.60
2014,08,25,13,28,25.60
2014,08,25,13,29,25.60
2014,08,25,13,30,25.50
2014,08,25,13,31,25.50
2014,08,25,13,32,25.40
2014,08,25,13,33,25.40
2014,08,25,13,34,25.40
2014,08,25,13,35,25.40
2014,08,25,13,36,25.30
2014,08,25,13,37,25.30
2014,08,25,13,38,25.30
2014,08,25,13,39,25.30
2014,08,25,13,40,25.30
2014,08,25,13,41,25.40
2014,08,25,13,42,25.40
2014,08,25,13,43,25.50
2014,08,25,13,44,25.60
2014,08,25,13,45,25.60
2014,08,25,13,46,25.70
2014,08,25,13,47,25.80
2014,08,25,13,48,25.80
2014,08,25,13,49,25.90
2014,08,25,13,50,26.00
2014,08,25,13,51,26.10
2014,08,25,13,52,26.20
2014,08,25,13,53,26.30
2014,08,25,13,54,26.20
2014,08,25,13,55,26.20
2014,08,25,13,56,26.20
2014,08,25,13,57,26.10
2014,08,25,13,58,26.10
2014,08,25,13,59,26.00
2014,08,25,14,00,26.10
2014,08,25,14,01,26.10
2014,08,25,14,02,26.10
2014,08,25,14,03,26.10
2014,08,25,14,04,26.00
2014,08,25,14,05,25.90
2014,08,25,14,06,25.90
2014,08,25,14,07,25.90
2014,08,25,14,08,26.00
2014,08,25,14,09,26.00
2014,08,25,14,10,26.00
2014,08,25,14,11,26.10
2014,08,25,14,12,26.10
2014,08,25,14,13,26.10
2014,08,25,14,14,26.10
2014,08,25,14,15,26.10
2014,08,25,14,16,26.20
2014,08,25,14,17,26.20
2014,08,25,14,18,26.20
2014,08,25,14,19,26.20
2014,08,25,14,20,26.20
2014,08,25,14,21,26.20
2014,08,25,14,22,26.20
2014,08,25,14,23,26.10
2014,08,25,14,24,26.10
2014,08,25,14,25,26.10
2014,08,25,14,26,26.10
2014,08,25,14,27,26.00
2014,08,25,14,28,26.10
2014,08,25,14,29,26.10
2014,08,25,14,30,26.10
2014,08,25,14,31,26.10
2014,08,25,14,32,26.10
2014,08,25,14,33,26.10
2014,08,25,14,34,26.00
2014,08,25,14,35,26.00
2014,08,25,14,36,25.90
2014,08,25,14,37,25.80
2014,08,25,14,38,25.80
2014,08,25,14,39,25.80
2014,08,25,14,40,25.80
2014,08,25,14,41,25.90
2014,08,25,14,42,25.90
2014,08,25,14,43,26.10
2014,08,25,14,44,26.10
2014,08,25,14,45,26.10
2014,08,25,14,46,26.20
2014,08,25,14,47,26.30
2014,08,25,14,48,26.40
2014,08,25,14,49,26.60
2014,08,25,14,50,26.70
2014,08,25,14,51,26.70
2014,08,25,14,52,26.70
2014,08,25,14,53,26.70
2014,08,25,14,54,26.80
2014,08,25,14,55,26.90
2014,08,25,14,56,27.00
2014,08,25,14,57,27.10
2014,08,25,14,58,27.10
2014,08,25,14,59,27.00
2014,08,25,15,00,27.00
2014,08,25,15,01,26.90
2014,08,25,15,02,26.80
2014,08,25,15,03,26.70
2014,08,25,15,04,26.70
2014,08,25,15,05,26.70
2014,08,25,15,06,26.70
2014,08,25,15,07,26.70
2014,08,25,15,08,26.70
2014,08,25,15,09,26.70
2014,08,25,15,10,26.70
2014,08,25,15,11,26.70
2014,08,25,15,12,26.70
2014,08,25,15,13,26.70
2014,08,25,15,14,26.70
2014,08,25,15,15,26.80
2014,08,25,15,16,26.80
2014,08,25,15,17,26.90
2014,08,25,15,18,27.00
2014,08,25,15,19,27.20
2014,08,25,15,20,27.20
2014,08,25,15,21,27.30
2014,08,25,15,22,27.30
2014,08,25,15,23,27.40
2014,08,25,15,24,27.40
2014,08,25,15,25,27.50
2014,08,25,15,26,27.60
2014,08,25,15,27,27.60
2014,08,25,15,28,27.50
2014,08,25,15,29,27.40
2014,08,25,15,30,27.30
2014,08,25,15,31,27.20
2014,08,25,15,32,27.10
2014,08,25,15,33,27.10
2014,08,25,15,34,27.10
2014,08,25,15,35,27.10
2014,08,25,15,36,27.10
2014,08,25,15,37,27.10
2014,08,25,15,38,27.10
2014,08,25,15,39,27.10
2014,08,25,15,40,27.10
2014,08,25,15,41,27.10
2014,08,25,15,42,27.10
2014,08,25,15,43,27.10
2014,08,25,15,44,27.10
2014,08,25,15,45,27.10
2014,08,25,15,46,27.10
2014,08,25,15,47,27.10
2014,08,25,15,48,27.00
2014,08,25,15,49,27.00
2014,08,25,15,50,26.90
2014,08,25,15,51,26.90
2014,08,25,15,52,26.80
2014,08,25,15,53,26.70
2014,08,25,15,54,26.60
2014,08,25,15,55,26.50
2014,08,25,15,56,26.40
2014,08,25,15,57,26.40
2014,08,25,15,58,26.40
2014,08,25,15,59,26.40
2014,08,25,16,00,26.40
2014,08,25,16,01,26.40
2014,08,25,16,02,26.30
2014,08,25,16,03,26.30
2014,08,25,16,04,26.30
2014,08,25,16,05,26.40
2014,08,25,16,06,26.40
2014,08,25,16,07,26.50
2014,08,25,16,08,26.60
2014,08,25,16,09,26.70
2014,08,25,16,10,26.80
2014,08,25,16,11,26.90
2014,08,25,16,12,26.90
2014,08,25,16,13,26.90
2014,08,25,16,14,26.90
2014,08,25,16,15,26.90
2014,08,25,16,16,26.80
2014,08,25,16,17,26.80
2014,08,25,16,18,26.80
2014,08,25,16,19,26.90
2014,08,25,16,20,26.90
2014,08,25,16,21,26.90
2014,08,25,16,22,26.90
2014,08,25,16,23,27.00
2014,08,25,16,24,27.00
2014,08,25,16,25,27.10
2014,08,25,16,26,27.10
2014,08,25,16,27,27.10
2014,08,25,16,28,27.00
2014,08,25,16,29,27.00
2014,08,25,16,30,27.00
2014,08,25,16,31,26.90
2014,08,25,16,32,26.90
2014,08,25,16,33,26.80
2014,08,25,16,34,26.80
2014,08,25,16,35,26.80
2014,08,25,16,36,26.80
2014,08,25,16,37,26.80
2014,08,25,16,38,26.80
2014,08,25,16,39,26.80
2014,08,25,16,40,26.90
2014,08,25,16,41,26.90
2014,08,25,16,42,26.90
2014,08,25,16,43,26.90
2014,08,25,16,44,27.00
2014,08,25,16,45,27.00
2014,08,25,16,46,27.10
2014,08,25,16,47,27.20
2014,08,25,16,48,27.30
2014,08,25,16,49,27.30
2014,08,25,16,50,27.30
2014,08,25,16,51,27.30
2014,08,25,16,52,27.30
2014,08,25,16,53,27.40
2014,08,25,16,54,27.40
2014,08,25,16,55,27.50
2014,08,25,16,56,27.60
2014,08,25,16,57,27.70
2014,08,25,16,58,27.80
2014,08,25,16,59,27.80
2014,08,25,17,00,27.80
2014,08,25,17,01,27.80
2014,08,25,17,02,27.90
2014,08,25,17,03,27.90
2014,08,25,17,04,27.90
2014,08,25,17,05,27.90
2014,08,25,17,06,28.00
2014,08,25,17,07,28.00
2014,08,25,17,08,28.00
2014,08,25,17,09,28.00
2014,08,25,17,10,28.00
2014,08,25,17,11,28.00
2014,08,25,17,12,27.90
2014,08,25,17,13,27.90
2014,08,25,17,14,27.80
2014,08,25,17,15,27.90
2014,08,25,17,16,27.90
2014,08,25,17,17,27.90
2014,08,25,17,18,27.90
2014,08,25,17,19,27.90